Total_Precipitation_Accumulation
0.47 0.45 0.54 0.77 0.89 0.80 0.83 0.92 1.19 1.07 0.97 0.99 0.99 1.04 1.04 1.02 1.02 1.02 1.08 1.08 1.05 1.10 1.17 1.30 1.40 1.45 1.50 1.51 1.53 1.64 1.74 1.78 1.78 1.67 1.55 1.49 1.52 1.35 1.37 1.46 1.46 1.48 1.54 1.59
0.29 0.27 0.38 0.63 0.76 0.79 0.76 0.74 0.77 0.70 0.71 0.66 0.66 0.72 0.79 0.85 0.79 0.79 0.86 0.87 0.86 0.87 0.92 1.01 0.96 1.02 1.11 1.24 1.38 1.53 1.59 1.58 1.57 1.52 1.51 1.47 1.41 1.34 1.31 1.33 1.38 1.41 1.41 1.54
0.39 0.29 0.41 0.68 0.71 0.75 0.60 0.45 0.44 0.53 0.55 0.50 0.51 0.60 0.68 0.76 0.78 0.75 0.74 0.75 0.79 0.80 0.78 0.83 0.83 0.88 0.96 1.06 1.22 1.34 1.39 1.35 1.27 1.25 1.28 1.31 1.30 1.31 1.32 1.30 1.32 1.35 1.30 1.39
0.57 0.53 0.79 0.90 0.72 0.62 0.55 0.41 0.32 0.34 0.38 0.40 0.44 0.54 0.61 0.66 0.74 0.70 0.66 0.66 0.71 0.74 0.73 0.76 0.84 0.91 1.00 1.06 1.09 1.19 1.27 1.27 1.21 1.16 1.13 1.15 1.18 1.24 1.33 1.28 1.25 1.29 1.25 1.19
0.76 0.73 0.74 0.71 0.53 0.51 0.61 0.62 0.38 0.32 0.32 0.32 0.35 0.47 0.54 0.59 0.61 0.55 0.51 0.49 0.50 0.53 0.56 0.63 0.70 0.77 0.81 0.85 0.88 0.96 1.02 1.05 1.04 0.99 1.04 1.12 1.10 1.23 1.33 1.24 1.23 1.20 1.21 1.15
0.84 0.86 0.88 0.67 0.38 0.34 0.49 0.82 0.49 0.35 0.29 0.26 0.33 0.48 0.48 0.46 0.46 0.40 0.37 0.35 0.33 0.38 0.42 0.47 0.55 0.68 0.73 0.71 0.67 0.74 0.83 0.82 0.87 0.90 0.95 1.04 1.14 1.23 1.26 1.24 1.23 1.16 1.15 1.10
0.90 1.04 1.04 0.72 0.41 0.38 0.75 0.90 0.51 0.37 0.31 0.28 0.34 0.35 0.34 0.35 0.38 0.32 0.33 0.33 0.32 0.34 0.39 0.45 0.51 0.59 0.64 0.68 0.64 0.66 0.74 0.78 0.81 0.82 0.88 1.03 1.15 1.13 1.08 1.09 1.13 1.13 1.14 1.07
1.10 1.35 1.39 0.87 0.67 0.73 0.73 0.52 0.39 0.30 0.31 0.32 0.34 0.29 0.27 0.29 0.29 0.25 0.27 0.31 0.32 0.32 0.37 0.45 0.48 0.49 0.52 0.55 0.56 0.60 0.63 0.69 0.71 0.71 0.75 0.83 0.92 1.00 1.00 1.00 1.03 1.02 1.01 1.00
1.21 1.23 1.02 0.77 0.70 0.63 0.56 0.47 0.35 0.31 0.30 0.32 0.32 0.29 0.28 0.25 0.24 0.21 0.23 0.27 0.32 0.38 0.44 0.48 0.51 0.48 0.48 0.49 0.52 0.58 0.63 0.66 0.64 0.63 0.66 0.73 0.81 0.91 0.99 1.01 0.98 0.95 0.88 0.84
0.69 0.69 0.62 0.50 0.44 0.45 0.44 0.42 0.33 0.30 0.30 0.33 0.33 0.32 0.29 0.24 0.23 0.22 0.22 0.25 0.30 0.40 0.44 0.51 0.51 0.49 0.48 0.48 0.48 0.53 0.59 0.67 0.68 0.70 0.71 0.72 0.76 0.81 0.93 0.99 0.91 0.82 0.82 0.81
0.50 0.46 0.45 0.39 0.36 0.37 0.38 0.34 0.29 0.27 0.28 0.31 0.32 0.31 0.29 0.28 0.29 0.26 0.25 0.26 0.30 0.36 0.43 0.49 0.55 0.53 0.50 0.50 0.47 0.49 0.57 0.62 0.63 0.68 0.73 0.73 0.70 0.68 0.76 0.81 0.87 0.89 0.87 0.88
0.49 0.36 0.40 0.42 0.36 0.33 0.35 0.31 0.28 0.30 0.34 0.32 0.28 0.27 0.27 0.28 0.33 0.33 0.31 0.31 0.33 0.35 0.40 0.43 0.50 0.57 0.57 0.60 0.58 0.55 0.57 0.62 0.62 0.65 0.71 0.71 0.69 0.69 0.71 0.73 0.83 0.84 0.83 0.84
0.33 0.26 0.29 0.32 0.28 0.26 0.27 0.24 0.24 0.26 0.32 0.33 0.29 0.27 0.25 0.26 0.32 0.35 0.35 0.38 0.43 0.44 0.44 0.43 0.46 0.51 0.56 0.63 0.65 0.67 0.66 0.68 0.69 0.68 0.67 0.66 0.71 0.75 0.72 0.67 0.68 0.69 0.70 0.68
0.20 0.20 0.24 0.25 0.24 0.22 0.21 0.20 0.23 0.25 0.27 0.29 0.29 0.26 0.25 0.27 0.32 0.34 0.35 0.40 0.44 0.45 0.46 0.48 0.47 0.51 0.60 0.67 0.71 0.76 0.82 0.89 0.83 0.76 0.71 0.68 0.70 0.76 0.77 0.78 0.73 0.64 0.64 0.67
0.17 0.19 0.23 0.22 0.21 0.21 0.20 0.20 0.22 0.22 0.25 0.26 0.25 0.26 0.30 0.33 0.34 0.37 0.36 0.35 0.37 0.37 0.39 0.46 0.47 0.48 0.56 0.58 0.64 0.69 0.79 0.87 0.90 0.86 0.81 0.79 0.81 0.86 0.86 0.76 0.71 0.70 0.66 0.67
0.21 0.19 0.19 0.17 0.18 0.18 0.16 0.18 0.20 0.21 0.22 0.24 0.25 0.31 0.37 0.40 0.39 0.41 0.38 0.33 0.32 0.33 0.35 0.44 0.50 0.49 0.52 0.54 0.55 0.61 0.64 0.78 0.88 0.91 0.89 0.87 0.91 0.93 0.91 0.82 0.73 0.70 0.69 0.67
0.23 0.27 0.26 0.22 0.20 0.20 0.20 0.20 0.19 0.20 0.21 0.20 0.25 0.34 0.39 0.41 0.40 0.41 0.42 0.39 0.37 0.36 0.37 0.43 0.50 0.52 0.54 0.56 0.56 0.57 0.59 0.65 0.76 0.80 0.81 0.81 0.85 0.90 0.92 0.89 0.82 0.77 0.74 0.73
0.22 0.26 0.30 0.28 0.24 0.24 0.24 0.24 0.23 0.21 0.21 0.22 0.26 0.36 0.43 0.43 0.44 0.46 0.49 0.48 0.44 0.39 0.39 0.44 0.47 0.50 0.54 0.60 0.64 0.64 0.63 0.64 0.69 0.74 0.77 0.79 0.83 0.83 0.88 0.90 0.88 0.85 0.83 0.85
0.22 0.24 0.25 0.24 0.22 0.24 0.25 0.25 0.26 0.28 0.28 0.27 0.28 0.37 0.45 0.52 0.56 0.54 0.53 0.55 0.54 0.54 0.54 0.56 0.62 0.55 0.56 0.65 0.70 0.66 0.65 0.64 0.66 0.73 0.77 0.83 0.86 0.83 0.84 0.84 0.83 0.81 0.80 0.82
0.29 0.32 0.34 0.33 0.28 0.26 0.28 0.29 0.28 0.30 0.34 0.35 0.33 0.35 0.44 0.52 0.55 0.54 0.54 0.56 0.62 0.69 0.69 0.71 0.69 0.62 0.62 0.67 0.74 0.68 0.70 0.72 0.75 0.79 0.79 0.79 0.84 0.86 0.86 0.85 0.86 0.84 0.84 0.87
0.36 0.43 0.42 0.39 0.32 0.27 0.27 0.27 0.28 0.31 0.34 0.33 0.34 0.38 0.47 0.57 0.58 0.56 0.56 0.58 0.61 0.66 0.70 0.77 0.74 0.72 0.71 0.79 0.84 0.77 0.78 0.79 0.81 0.85 0.86 0.85 0.87 0.88 0.89 0.89 0.90 0.92 0.94 0.94
0.39 0.40 0.37 0.36 0.33 0.29 0.28 0.27 0.26 0.27 0.29 0.32 0.34 0.40 0.49 0.60 0.65 0.62 0.59 0.63 0.68 0.77 0.75 0.76 0.74 0.83 0.90 0.89 0.78 0.79 0.83 0.87 0.90 0.89 0.89 0.92 0.95 0.96 0.94 0.95 0.96 0.96 0.97 0.99
0.37 0.37 0.41 0.43 0.40 0.36 0.33 0.32 0.33 0.32 0.33 0.36 0.38 0.42 0.48 0.54 0.65 0.71 0.64 0.58 0.61 0.72 0.71 0.74 0.81 0.89 0.94 0.84 0.79 0.80 0.81 0.81 0.84 0.86 0.90 0.95 0.97 1.00 1.03 1.03 1.01 0.98 1.01 1.04
0.31 0.33 0.39 0.43 0.42 0.41 0.42 0.41 0.42 0.42 0.41 0.41 0.43 0.45 0.48 0.52 0.58 0.67 0.64 0.63 0.69 0.74 0.66 0.75 0.86 0.92 0.89 0.74 0.77 0.84 0.87 0.85 0.87 0.93 0.98 0.98 0.97 1.00 1.04 1.08 1.09 1.07 1.09 1.13
0.28 0.28 0.31 0.37 0.41 0.41 0.40 0.38 0.40 0.43 0.44 0.44 0.46 0.49 0.51 0.55 0.62 0.69 0.67 0.62 0.70 0.76 0.73 0.84 0.93 0.92 0.84 0.83 0.84 0.88 0.96 1.00 1.05 1.09 1.07 1.08 1.08 1.09 1.09 1.11 1.15 1.18 1.16 1.16
0.26 0.25 0.27 0.33 0.36 0.37 0.36 0.35 0.38 0.41 0.45 0.45 0.45 0.50 0.54 0.58 0.62 0.71 0.75 0.70 0.70 0.77 0.79 0.84 0.89 0.91 0.89 0.96 1.00 1.00 1.00 1.06 1.07 1.05 1.06 1.10 1.11 1.11 1.10 1.10 1.10 1.12 1.14 1.12
0.27 0.26 0.28 0.32 0.34 0.33 0.34 0.37 0.41 0.43 0.47 0.49 0.49 0.51 0.53 0.57 0.63 0.70 0.79 0.79 0.74 0.76 0.83 0.89 0.92 0.94 0.96 1.00 1.03 1.06 1.09 1.10 1.11 1.10 1.09 1.13 1.17 1.19 1.17 1.16 1.17 1.17 1.18 1.20